Change the Weather History Date:

Friday, March 29, 2013

  Actual Average (KGUC) Record (KGUC)
Temperature  
Mean Temperature 30 °F -  
Max Temperature 37 °F 47 °F 59 °F (1999)
Min Temperature 23 °F 20 °F 8 °F (2003)
Degree Days  
Heating Degree Days 35    
Moisture  
Dew Point 17 °F    
Average Humidity 58    
Maximum Humidity 80    
Minimum Humidity 38    
Precipitation  
Precipitation 0.00 in - - ()
Sea Level Pressure  
Sea Level Pressure 30.44 in    
Wind  
Wind Speed 22 mph (West)    
Max Wind Speed 31 mph    
Max Gust Speed 43 mph    
Averages and records for this station are not official NWS values.
T = Trace of Precipitation, MM = Missing Value Source: NWS Daily Summary

Daily Weather History Graph

Daily Weather History Graph

Search for Another Location

Airport or City:

Trip Planner

Search our weather history database for the weather conditions in past years. The results will help you decide how hot, cold, wet, or windy it might be!

Date:

Astronomy

Mar. 29, 2013 Rise Set
Actual Time 6:54 AM MDT 7:26 PM MDT
Civil Twilight 6:27 AM MDT 7:52 PM MDT
Nautical Twilight 5:56 AM MDT 8:24 PM MDT
Astronomical Twilight 5:24 AM MDT 8:56 PM MDT
Moon 10:26 PM MDT (3/29) 8:07 AM MDT (3/29)
Length of Visible Light 13h 25m
Length of Day
12h 31m
Waning Gibbous, 93% of the Moon is Illuminated
Mar 29
Waning Gibbous
Apr 2
Last Quarter
Apr 10
New
Apr 18
First Quarter
Apr 25
Full

Hourly Weather History & Observations

Time (MDT) Temp. Windchill Dew Point Humidity Pressure Visibility Wind Dir Wind Speed Gust Speed Precip Events Conditions
12:19 AM 30.2 °F 18.1 °F 14.0 °F 51% 30.43 in - WSW 18.4 mph - N/A   Overcast
12:39 AM 30.2 °F 18.1 °F 14.0 °F 51% 30.43 in - WSW 18.4 mph - N/A   Overcast
12:59 AM 30.2 °F 18.1 °F 14.0 °F 51% 30.43 in - WSW 18.4 mph 21.9 mph N/A   Overcast
1:19 AM 28.4 °F 14.7 °F 14.0 °F 55% 30.43 in - WSW 21.9 mph - N/A   Overcast
1:39 AM 28.4 °F 15.1 °F 14.0 °F 55% 30.43 in - West 20.7 mph - N/A   Mostly Cloudy
1:59 AM 28.4 °F 15.4 °F 14.0 °F 55% 30.43 in - WSW 19.6 mph - N/A   Unknown
2:19 AM 28.4 °F 14.4 °F 14.0 °F 55% 30.43 in - West 23.0 mph - N/A   Clear
2:39 AM 28.4 °F 14.1 °F 14.0 °F 55% 30.42 in - West 24.2 mph - N/A   Clear
2:59 AM 28.4 °F 13.8 °F 14.0 °F 55% 30.42 in - West 25.3 mph - N/A   Clear
3:19 AM 28.4 °F 14.4 °F 14.0 °F 55% 30.42 in - West 23.0 mph - N/A   Clear
3:39 AM 28.4 °F 15.1 °F 14.0 °F 55% 30.41 in - West 20.7 mph 27.6 mph N/A   Clear
3:59 AM 26.6 °F 13.1 °F 12.2 °F 55% 30.41 in - West 19.6 mph - N/A   Clear
4:19 AM 26.6 °F 13.8 °F 12.2 °F 55% 30.41 in - West 17.3 mph - N/A   Clear
4:39 AM 26.6 °F 13.4 °F 12.2 °F 55% 30.41 in - West 18.4 mph - N/A   Clear
4:59 AM 26.6 °F 12.7 °F 12.2 °F 55% 30.41 in - West 20.7 mph - N/A   Clear
5:19 AM 26.6 °F 11.4 °F 12.2 °F 55% 30.41 in - West 25.3 mph - N/A   Clear
5:39 AM 26.6 °F 11.4 °F 12.2 °F 55% 30.41 in - West 25.3 mph 29.9 mph N/A   Clear
5:59 AM 26.6 °F 10.6 °F 14.0 °F 59% 30.42 in - West 28.8 mph 33.4 mph N/A   Scattered Clouds
6:19 AM 26.6 °F 10.8 °F 15.8 °F 64% 30.42 in - West 27.6 mph 33.4 mph N/A   Mostly Cloudy
6:39 AM 24.8 °F 9.3 °F 15.8 °F 69% 30.42 in - West 24.2 mph - N/A   Overcast
6:59 AM 24.8 °F 9.3 °F 17.6 °F 74% 30.43 in - West 24.2 mph 32.2 mph N/A   Overcast
7:19 AM 23.0 °F 6.3 °F 17.6 °F 80% 30.42 in - West 26.5 mph - N/A   Mostly Cloudy
7:39 AM 23.0 °F 7.6 °F 17.6 °F 80% 30.44 in - West 21.9 mph - N/A   Scattered Clouds
7:59 AM 24.8 °F - 17.6 °F 74% 30.44 in - North - - N/A   Scattered Clouds
8:19 AM 24.8 °F - 17.6 °F 74% 30.45 in - North - - N/A   Clear
8:39 AM 24.8 °F 12.4 °F 17.6 °F 74% 30.45 in - WNW 15.0 mph - N/A   Clear
8:59 AM 26.6 °F 14.7 °F 17.6 °F 69% 30.45 in - West 15.0 mph 18.4 mph N/A   Scattered Clouds
9:19 AM 26.6 °F 15.2 °F 17.6 °F 69% 30.46 in - West 13.8 mph 21.9 mph N/A   Mostly Cloudy
9:39 AM 28.4 °F 15.1 °F 19.4 °F 69% 30.45 in - West 20.7 mph 24.2 mph N/A   Mostly Cloudy
9:59 AM 30.2 °F 16.8 °F 19.4 °F 64% 30.45 in - West 23.0 mph 32.2 mph N/A   Mostly Cloudy
10:19 AM 30.2 °F 17.4 °F 19.4 °F 64% 30.46 in - West 20.7 mph 32.2 mph N/A   Overcast
10:59 AM 32.0 °F 18.4 °F 19.4 °F 60% 30.46 in - West 26.5 mph 33.4 mph N/A   Clear
11:19 AM 32.0 °F 18.6 °F 19.4 °F 60% 30.47 in - West 25.3 mph 34.5 mph N/A   Clear
11:39 AM 32.0 °F 17.9 °F 19.4 °F 60% 30.47 in - West 28.8 mph 33.4 mph N/A   Clear
11:59 AM 32.0 °F 18.1 °F 19.4 °F 60% 30.47 in - West 27.6 mph 34.5 mph N/A   Clear
12:19 PM 32.0 °F 17.9 °F 19.4 °F 60% 30.46 in - West 28.8 mph 34.5 mph N/A   Clear
12:39 PM 33.8 °F 20.3 °F 17.6 °F 52% 30.46 in - West 28.8 mph 33.4 mph N/A   Scattered Clouds
12:59 PM 33.8 °F 20.1 °F 17.6 °F 52% 30.46 in - West 29.9 mph 38.0 mph N/A   Clear
1:19 PM 33.8 °F 20.5 °F 17.6 °F 52% 30.46 in - West 27.6 mph 34.5 mph N/A   Clear
1:39 PM 35.6 °F 24.0 °F 19.4 °F 52% 30.45 in - West 23.0 mph 32.2 mph N/A   Clear
1:59 PM 35.6 °F 22.5 °F 17.6 °F 48% 30.45 in - West 29.9 mph 35.7 mph N/A   Clear
2:19 PM 35.6 °F 23.2 °F 17.6 °F 48% 30.45 in - West 26.5 mph 38.0 mph N/A   Clear
2:39 PM 35.6 °F 23.0 °F 17.6 °F 48% 30.44 in - West 27.6 mph 39.1 mph N/A   Clear
2:59 PM 37.4 °F 25.9 °F 19.4 °F 48% 30.44 in - West 25.3 mph 33.4 mph N/A   Mostly Cloudy
3:19 PM 35.6 °F 24.0 °F 17.6 °F 48% 30.43 in - West 23.0 mph 35.7 mph N/A   Overcast
3:39 PM 33.8 °F 24.3 °F 19.4 °F 56% 30.44 in - NW 13.8 mph 27.6 mph N/A   Overcast
3:59 PM 37.4 °F 27.8 °F 17.6 °F 45% 30.44 in - WNW 17.3 mph 28.8 mph N/A   Overcast
4:19 PM 35.6 °F 25.2 °F 15.8 °F 44% 30.43 in - WNW 18.4 mph 32.2 mph N/A   Overcast
4:59 PM 37.4 °F 24.8 °F 14.0 °F 38% 30.43 in - West 31.1 mph 42.6 mph N/A   Overcast
5:19 PM 37.4 °F 25.4 °F 14.0 °F 38% 30.43 in - West 27.6 mph 38.0 mph N/A   Overcast
5:39 PM 35.6 °F 23.2 °F 14.0 °F 41% 30.44 in - West 26.5 mph 38.0 mph N/A   Overcast
5:59 PM 33.8 °F 22.5 °F 17.6 °F 52% 30.44 in - WSW 19.6 mph 32.2 mph N/A   Overcast
6:19 PM 35.6 °F 23.0 °F 17.6 °F 48% 30.44 in - West 27.6 mph 32.2 mph N/A   Scattered Clouds
6:39 PM 33.8 °F 22.5 °F 17.6 °F 52% 30.45 in - West 19.6 mph 38.0 mph N/A   Clear
6:59 PM 33.8 °F 21.3 °F 17.6 °F 52% 30.45 in - West 24.2 mph 32.2 mph N/A   Clear
7:19 PM 32.0 °F 18.6 °F 17.6 °F 55% 30.45 in - West 25.3 mph - N/A   Clear
7:39 PM 32.0 °F 20.8 °F 17.6 °F 55% 30.45 in - West 17.3 mph - N/A   Scattered Clouds
7:59 PM 30.2 °F 16.5 °F 17.6 °F 60% 30.44 in - West 24.2 mph - N/A   Scattered Clouds
8:19 PM 30.2 °F 18.1 °F 17.6 °F 60% 30.45 in - West 18.4 mph - N/A   Clear
8:39 PM 30.2 °F 18.5 °F 17.6 °F 60% 30.45 in - West 17.3 mph - N/A   Clear
8:59 PM 30.2 °F 17.1 °F 17.6 °F 60% 30.45 in - West 21.9 mph - N/A   Clear
9:19 PM 30.2 °F 17.4 °F 17.6 °F 60% 30.45 in - West 20.7 mph - N/A   Clear
9:39 PM 30.2 °F 17.4 °F 17.6 °F 60% 30.45 in - West 20.7 mph 25.3 mph N/A   Clear
9:59 PM 30.2 °F 16.2 °F 17.6 °F 60% 30.46 in - West 25.3 mph 29.9 mph N/A   Clear
10:19 PM 30.2 °F 17.4 °F 17.6 °F 60% 30.46 in - West 20.7 mph - N/A   Clear
10:39 PM 28.4 °F 18.0 °F 17.6 °F 64% 30.47 in - West 12.7 mph - N/A   Clear
10:59 PM 28.4 °F 20.4 °F 17.6 °F 64% 30.48 in - West 8.1 mph - N/A   Clear
11:19 PM 28.4 °F 17.0 °F 19.4 °F 69% 30.48 in - West 15.0 mph - N/A   Scattered Clouds
11:39 PM 28.4 °F 16.6 °F 19.4 °F 69% 30.48 in - West 16.1 mph 21.9 mph N/A   Overcast
11:59 PM 28.4 °F 14.7 °F 19.4 °F 69% 30.48 in - West 21.9 mph - N/A   Overcast